Location: Veytaux
(46.4185°N, 6.9320°E)
Time: 04:28:51
(UTC+00:00)

DEBRIS - Pass Details

Date: 03 October 2022
Orbit: 310 x 15046 km, 49.5° (Epoch: 28 November)

Event Time Altitude Azimuth Distance (km) Brightness Sun altitude
Rises 02:45:56 0° 171° (S) 11,162 9.3 -28.8°
Reaches altitude 10° 02:53:55 10° 165° (SSE) 11,669 9.4 -27.5°
Maximum altitude 04:29:23 54° 102° (ESE) 15,953 10.5 -11.8°
Drops below altitude 10° 05:54:47 10° 56° (NE) 11,962 10.4 2.9°
Sets 06:02:04 0° 54° (NE) 11,637 10.3 4.1°
